Date String (YYYY-MM-DD hh:mm:ss) UTC,Instrument flags,Ambient pressure (hPa),Sample flow (lpm),Bypass flow (lpm),Sample temperature (°C),Ambient temperature (°C),ASC tube jacket temperature (°C),LED temperature (°C),Box temperature (°C),Sample RH (%),Span deviation,Mass concentration (μg/m³),Mass concentration (μg/m³),Mass concentration (μg/m³)
DateTimeUTC,F1_M11,P_M11,Q1_M11,Q2_M11,T1_M11,T2_M11,T3_M11,T4_M11,T5_M11,U1_M11,ZSPAN_M11,X0_M11,X2_M11,X1_M11
2022-09-15 14:00:00,,0826.9,5.01,0.00,30.8,27.6,00.0,39.5,32.3,25.7,0000.0,0009.49,0003.21,0002.37
2022-09-15 14:01:00,,0826.8,4.99,0.00,30.7,27.9,00.0,39.5,32.3,25.7,0000.0,0009.18,0003.18,0002.36
2022-09-15 14:02:00,,0826.8,5.00,0.00,30.7,28.2,00.0,39.5,32.3,25.8,0000.0,0009.22,0003.19,0002.34
2022-09-15 14:03:00,,0827.0,4.98,0.00,30.6,28.4,00.0,39.4,32.3,26.0,0000.0,0009.02,0003.20,0002.33
2022-09-15 14:04:00,,0827.2,5.01,0.00,30.6,28.5,00.0,39.4,32.3,26.0,0000.0,0009.11,0003.21,0002.31
2022-09-15 14:05:00,,0827.1,5.01,0.00,30.6,28.6,00.0,39.4,32.3,26.0,0000.0,0009.34,0003.19,0002.29
2022-09-15 14:06:00,,0826.8,4.99,0.00,30.6,28.7,00.0,39.4,32.3,25.9,0000.0,0009.26,0003.16,0002.27
2022-09-15 14:07:00,,0826.9,5.01,0.00,30.6,28.8,00.0,39.4,32.3,25.9,0000.0,0008.80,0003.13,0002.24
2022-09-15 14:08:00,,0826.8,4.99,0.00,30.6,28.9,00.0,39.4,32.3,26.1,0000.0,0008.66,0003.15,0002.22
2022-09-15 14:09:00,,0826.8,5.00,0.00,30.6,29.0,00.0,39.4,32.3,25.9,0000.0,0007.82,0003.12,0002.20
2022-09-15 14:10:00,,0826.8,5.01,0.00,30.6,29.0,00.0,39.4,32.3,26.0,0000.0,0007.77,0003.04,0002.17
2022-09-15 14:11:00,,0826.8,4.99,0.00,30.6,29.1,00.0,39.4,32.4,26.1,0000.0,0007.72,0002.99,0002.15
2022-09-15 14:12:00,,0826.8,5.01,0.00,30.6,29.1,00.0,39.4,32.4,26.4,0000.0,0007.59,0003.02,0002.13
2022-09-15 14:13:00,,0826.8,4.99,0.00,30.6,29.2,00.0,39.4,32.4,26.5,0000.0,0007.42,0002.96,0002.12
2022-09-15 14:14:00,,0826.7,4.99,0.00,30.6,29.2,00.0,39.4,32.4,26.5,0000.0,0007.43,0002.90,0002.10
2022-09-15 14:15:00,,0826.8,4.99,0.00,30.6,29.2,00.0,39.4,32.4,26.7,0000.0,0006.57,0002.79,0002.08
2022-09-15 14:16:00,,0826.8,5.01,0.00,30.6,29.2,00.0,39.4,32.4,26.3,0000.0,0005.79,0002.79,0002.06
2022-09-15 14:17:00,,0826.8,4.99,0.00,30.7,29.3,00.0,39.4,32.5,26.2,0000.0,0006.04,0002.80,0002.04
2022-09-15 14:18:00,,0826.7,5.01,0.00,30.7,29.3,00.0,39.4,32.5,26.1,0000.0,0006.00,0002.77,0002.03
2022-09-15 14:19:00,,0826.8,4.99,0.00,30.7,29.3,00.0,39.4,32.5,26.3,0000.0,0005.83,0002.69,0002.02
2022-09-15 14:20:00,,0826.8,5.02,0.00,30.7,29.4,00.0,39.4,32.5,26.2,0000.0,0005.81,0002.67,0002.00
2022-09-15 14:21:00,,0826.8,4.99,0.00,30.7,29.4,00.0,39.4,32.6,26.2,0000.0,0005.48,0002.66,0002.00
2022-09-15 14:22:00,,0826.8,5.01,0.00,30.8,29.4,00.0,39.5,32.6,26.2,0000.0,0006.45,0002.66,0001.98
2022-09-15 14:23:00,,0826.9,4.99,0.00,30.8,29.5,00.0,39.5,32.6,26.2,0000.0,0006.76,0002.66,0001.96
2022-09-15 14:24:00,,0826.9,5.01,0.00,30.8,29.5,00.0,39.5,32.6,26.0,0000.0,0006.82,0002.67,0001.94
2022-09-15 14:25:00,,0826.9,4.99,0.00,30.8,29.5,00.0,39.5,32.6,26.1,0000.0,0006.62,0002.65,0001.93
2022-09-15 14:26:00,,0826.9,5.00,0.00,30.8,29.5,00.0,39.5,32.6,26.0,0000.0,0006.64,0002.69,0001.94
2022-09-15 14:27:00,,0826.9,5.00,0.00,30.9,29.6,00.0,39.5,32.7,26.0,0000.0,0006.20,0002.65,0001.94
2022-09-15 14:28:00,,0826.9,4.99,0.00,30.9,29.6,00.0,39.5,32.7,26.1,0000.0,0005.90,0002.61,0001.93
2022-09-15 14:29:00,,0826.9,5.01,0.00,30.9,29.5,00.0,39.6,32.7,26.3,0000.0,0006.01,0002.59,0001.92
2022-09-15 14:30:00,,0826.9,5.00,0.00,30.9,28.5,00.0,39.5,32.7,26.2,0000.0,0006.21,0002.58,0001.90
2022-09-15 14:31:00,,0826.9,5.00,0.00,30.9,27.4,00.0,39.5,32.6,26.3,0000.0,0005.93,0002.50,0001.89
2022-09-15 14:32:00,,0826.9,5.00,0.00,30.8,27.4,00.0,39.5,32.5,26.2,0000.0,0005.90,0002.46,0001.86
2022-09-15 14:33:00,,0826.9,4.99,0.00,30.7,27.6,00.0,39.4,32.3,26.4,0000.0,0005.58,0002.45,0001.86
2022-09-15 14:34:00,,0826.9,5.00,0.00,30.7,27.9,00.0,39.4,32.3,26.7,0000.0,0006.56,0002.42,0001.85
2022-09-15 14:35:00,,0826.9,5.01,0.00,30.6,28.2,00.0,39.4,32.2,26.7,0000.0,0006.49,0002.39,0001.84
2022-09-15 14:36:00,,0826.9,4.99,0.00,30.6,28.4,00.0,39.3,32.3,26.5,0000.0,0006.60,0002.39,0001.83
2022-09-15 14:37:00,,0826.9,5.00,0.00,30.6,28.6,00.0,39.3,32.3,26.5,0000.0,0006.44,0002.32,0001.81
2022-09-15 14:38:00,,0827.0,5.01,0.00,30.6,28.7,00.0,39.3,32.3,26.7,0000.0,0006.46,0002.28,0001.78
2022-09-15 14:39:00,,0826.9,5.00,0.00,30.6,28.9,00.0,39.3,32.3,26.9,0000.0,0006.30,0002.23,0001.76
2022-09-15 14:40:00,,0827.0,5.01,0.00,30.6,28.9,00.0,39.3,32.3,27.1,0000.0,0006.19,0002.25,0001.75
2022-09-15 14:41:00,,0827.0,5.01,0.00,30.6,29.0,00.0,39.3,32.3,26.9,0000.0,0006.03,0002.22,0001.74
2022-09-15 14:42:00,,0826.9,4.98,0.00,30.6,29.1,00.0,39.3,32.4,27.0,0000.0,0006.03,0002.23,0001.75
2022-09-15 14:43:00,,0826.9,5.01,0.00,30.6,29.2,00.0,39.3,32.4,26.7,0000.0,0006.01,0002.27,0001.76
2022-09-15 14:44:00,,0826.9,4.99,0.00,30.6,29.2,00.0,39.3,32.4,26.6,0000.0,0005.38,0002.26,0001.78
2022-09-15 14:45:00,,0826.9,5.01,0.00,30.6,29.2,00.0,39.3,32.4,26.5,0000.0,0003.42,0002.21,0001.78
2022-09-15 14:46:00,,0826.9,5.01,0.00,30.6,29.3,00.0,39.3,32.4,26.6,0000.0,0004.60,0002.23,0001.79
2022-09-15 14:47:00,,0826.9,5.00,0.00,30.7,29.3,00.0,39.4,32.5,26.8,0000.0,0005.27,0002.22,0001.80
2022-09-15 14:48:00,,0826.8,5.00,0.00,30.7,29.4,00.0,39.4,32.5,26.8,0000.0,0005.75,0002.24,0001.81
2022-09-15 14:49:00,,0826.9,5.00,0.00,30.7,29.4,00.0,39.4,32.5,26.4,0000.0,0005.68,0002.25,0001.83
2022-09-15 14:50:00,,0826.9,5.00,0.00,30.7,29.4,00.0,39.4,32.5,26.6,0000.0,0005.66,0002.28,0001.86
2022-09-15 14:51:00,,0826.9,4.99,0.00,30.7,29.4,00.0,39.4,32.6,26.9,0000.0,0005.62,0002.27,0001.87
2022-09-15 14:52:00,,0826.9,5.00,0.00,30.8,28.8,00.0,39.4,32.6,26.9,0000.0,0005.59,0002.29,0001.89
2022-09-15 14:53:00,,0826.9,4.99,0.00,30.7,27.5,00.0,39.4,32.5,26.3,0000.0,0005.88,0002.32,0001.92
2022-09-15 14:54:00,,0826.9,5.00,0.00,30.7,27.0,00.0,39.3,32.4,26.4,0000.0,0005.88,0002.32,0001.93
2022-09-15 14:55:00,,0826.9,5.00,0.00,30.6,27.2,00.0,39.3,32.3,26.6,0000.0,0005.98,0002.34,0001.93
2022-09-15 14:56:00,,0827.0,5.00,0.00,30.5,27.5,00.0,39.3,32.1,26.7,0000.0,0006.20,0002.39,0001.94
2022-09-15 14:57:00,,0827.2,5.00,0.00,30.5,27.8,00.0,39.2,32.1,26.9,0000.0,0005.73,0002.38,0001.95
2022-09-15 14:58:00,,0827.0,5.01,0.00,30.4,28.1,00.0,39.2,32.1,27.0,0000.0,0004.52,0002.37,0001.95
2022-09-15 14:59:00,,0827.0,4.98,0.00,30.4,28.3,00.0,39.2,32.1,27.3,0000.0,0003.93,0002.40,0001.98
